Terminal Aerodrome Forecast
Issued by NWS

Home | Current Version | Previous Version | Graphics & Text | Print | Product List | Glossary On
Versions: 1 2 3 4 5 6 7 8 9 10 11 12 13 14 15 16 17
000
FTUS43 KIWX 211700
TAFSBN
TAF
KSBN 211723Z 2118/2218 19007KT P6SM SCT050
     FM220000 16003KT P6SM SKC
      TEMPO 2209/2212 5SM BR
     FM221500 18009KT P6SM SCT250=

USA.gov is the U.S. government's official web portal to all federal, state and local government web resources and services.